Weather History for Whiteville, NC

Change the Weather History Date:

Thursday, February 6, 2014

  Actual Average (KLBT) Record (KLBT)
Temperature  
Mean Temperature 42 °F 45 °F  
Max Temperature 49 °F 56 °F 80 °F (2008)
Min Temperature 33 °F 34 °F 18 °F (2009)
Degree Days  
Heating Degree Days 22 20  
Month to date heating degree days 122  
Since 1 July heating degree days 1841  
Cooling Degree Days 0 0  
Month to date cooling degree days 0  
Year to date cooling degree days 1  
Moisture  
Dew Point 31 °F    
Average Humidity 62    
Maximum Humidity 96    
Minimum Humidity 51    
Precipitation  
Precipitation 0.06 in 0.09 in 0.51 in (2003)
Month to date precipitation 0.51  
Year to date precipitation 3.48  
Sea Level Pressure  
Sea Level Pressure 30.22 in    
Wind  
Wind Speed 4 mph (NNE)    
Max Wind Speed 10 mph    
Max Gust Speed 17 mph    
Visibility 10 miles    
Events Rain , Snow    
T = Trace of Precipitation, MM = Missing Value Source: NWS Daily Summary

Daily Weather History Graph

Daily Weather History Graph

Search for Another Location

Airport:

Trip Planner

Search our weather history database for the weather conditions in past years. The results will help you decide how hot, cold, wet, or windy it might be!

Date:

Astronomy

Feb. 06, 2014 Rise Set
Actual Time 7:08 AM EST 5:49 PM EST
Civil Twilight 6:42 AM EST 6:16 PM EST
Nautical Twilight 6:12 AM EST 6:45 PM EST
Astronomical Twilight 5:43 AM EST 7:15 PM EST
Moon 11:21 AM EST (2/6) 12:22 AM EST (2/6)
Length of Visible Light 11h 33m
Length of Day
10h 41m
Waxing Crescent, 49% of the Moon is Illuminated
Feb 6
Waxing Crescent
Feb 6
First Quarter
Feb 14
Full
Feb 22
Last Quarter
Mar 1
New

Hourly Weather History & Observations

Time (EST) Temp. Windchill Dew Point Humidity Pressure Visibility Wind Dir Wind Speed Gust Speed Precip Events Conditions
12:15 AM 51.4 °F - 39.4 °F 63% 30.03 in 10.0 mi Calm Calm - N/A   Clear
12:35 AM 50.4 °F - 38.3 °F 63% 30.04 in 10.0 mi NNW 3.5 mph - N/A   Clear
12:55 AM 49.1 °F - 37.4 °F 64% 30.05 in 10.0 mi Calm Calm - N/A   Clear
1:15 AM 48.6 °F - 36.9 °F 64% 30.06 in 10.0 mi NW 3.5 mph - N/A   Scattered Clouds
1:35 AM 48.0 °F - 36.7 °F 65% 30.06 in 10.0 mi North 3.5 mph - N/A   Clear
1:55 AM 47.3 °F - 36.3 °F 66% 30.07 in 10.0 mi North 3.5 mph - N/A   Clear
2:15 AM 46.6 °F - 35.4 °F 65% 30.08 in 10.0 mi North 5.8 mph - N/A   Clear
2:35 AM 46.2 °F 42.7 °F 32.9 °F 60% 30.09 in 10.0 mi NNW 6.9 mph - N/A   Clear
2:55 AM 45.5 °F 42.5 °F 32.2 °F 60% 30.10 in 10.0 mi North 5.8 mph - N/A   Clear
3:15 AM 44.6 °F 42.2 °F 32.4 °F 62% 30.11 in 10.0 mi North 4.6 mph - N/A   Clear
3:35 AM 43.9 °F 41.3 °F 32.4 °F 64% 30.12 in 10.0 mi North 4.6 mph - N/A   Clear
3:55 AM 43.2 °F - 32.5 °F 66% 30.12 in 10.0 mi Calm Calm - N/A   Clear
4:15 AM 42.4 °F - 33.1 °F 69% 30.13 in 10.0 mi Calm Calm - N/A   Clear
4:35 AM 42.1 °F 39.2 °F 32.0 °F 67% 30.14 in 10.0 mi North 4.6 mph - N/A   Clear
4:55 AM 41.9 °F 40.0 °F 32.0 °F 68% 30.14 in 10.0 mi North 3.5 mph - N/A   Clear
5:15 AM 41.5 °F 37.8 °F 31.1 °F 66% 30.16 in 10.0 mi North 5.8 mph - N/A   Clear
5:35 AM 41.2 °F 38.2 °F 30.6 °F 66% 30.17 in 10.0 mi North 4.6 mph - N/A   Clear
5:55 AM 40.5 °F 35.8 °F 30.2 °F 67% 30.19 in 10.0 mi North 6.9 mph - N/A   Clear
6:15 AM 39.9 °F 36.7 °F 29.1 °F 65% 30.19 in 10.0 mi North 4.6 mph - N/A   Clear
6:35 AM 39.4 °F 35.2 °F 28.8 °F 66% 30.20 in 10.0 mi North 5.8 mph - N/A   Clear
6:55 AM 39.0 °F 34.8 °F 28.4 °F 66% 30.21 in 10.0 mi North 5.8 mph - N/A   Clear
7:15 AM 38.7 °F 36.3 °F 28.4 °F 67% 30.22 in 10.0 mi North 3.5 mph - N/A   Clear
7:35 AM 38.5 °F 35.0 °F 28.9 °F 69% 30.23 in 10.0 mi North 4.6 mph - N/A   Clear
7:55 AM 38.8 °F 34.6 °F 27.7 °F 64% 30.25 in 10.0 mi North 5.8 mph - N/A   Clear
8:15 AM 39.6 °F 35.4 °F 27.3 °F 62% 30.24 in 10.0 mi North 5.8 mph - N/A   Clear
8:35 AM 39.7 °F 35.6 °F 27.0 °F 60% 30.24 in 10.0 mi North 5.8 mph - N/A   Clear
8:55 AM 39.7 °F 35.6 °F 27.1 °F 61% 30.26 in 10.0 mi North 5.8 mph - N/A   Clear
9:15 AM 40.3 °F 36.3 °F 26.6 °F 58% 30.26 in 10.0 mi North 5.8 mph 16.1 mph N/A   Clear
9:35 AM 41.2 °F 36.0 °F 26.6 °F 56% 30.26 in 10.0 mi NNE 8.1 mph - N/A   Clear
9:55 AM 41.9 °F 35.9 °F 27.0 °F 55% 30.27 in 10.0 mi NNE 10.4 mph 16.1 mph N/A   Clear
10:15 AM 42.1 °F 37.7 °F 27.5 °F 56% 30.27 in 10.0 mi NE 6.9 mph - N/A   Clear
10:35 AM 43.2 °F 39.0 °F 28.2 °F 56% 30.28 in 10.0 mi North 6.9 mph - N/A   Clear
10:55 AM 43.7 °F 38.6 °F 28.8 °F 56% 30.28 in 10.0 mi NNE 9.2 mph - N/A   Clear
11:15 AM 44.4 °F 41.2 °F 29.1 °F 55% 30.28 in 10.0 mi NNW 5.8 mph - N/A   Clear
11:35 AM 44.1 °F 41.5 °F 29.1 °F 56% 30.27 in 10.0 mi NNE 4.6 mph - N/A   Clear
11:55 AM 44.4 °F 42.0 °F 29.3 °F 55% 30.26 in 10.0 mi North 4.6 mph 17.3 mph N/A   Clear
12:15 PM 45.1 °F 41.4 °F 30.4 °F 56% 30.26 in 10.0 mi ENE 6.9 mph - N/A   Scattered Clouds
12:35 PM 45.7 °F 42.7 °F 30.4 °F 55% 30.25 in 10.0 mi NE 5.8 mph - N/A   Scattered Clouds
12:55 PM 45.5 °F 41.8 °F 31.1 °F 57% 30.24 in 10.0 mi NNW 6.9 mph - N/A   Scattered Clouds
1:15 PM 46.6 °F - 30.9 °F 54% 30.23 in 10.0 mi North 8.1 mph - N/A   Scattered Clouds
1:35 PM 46.6 °F - 31.1 °F 55% 30.23 in 10.0 mi NE 6.9 mph 16.1 mph N/A   Scattered Clouds
1:55 PM 47.3 °F - 30.9 °F 53% 30.23 in 10.0 mi North 3.5 mph - N/A   Scattered Clouds
2:15 PM 47.3 °F - 30.6 °F 52% 30.23 in 10.0 mi North 4.6 mph - N/A   Scattered Clouds
2:35 PM 47.7 °F - 31.1 °F 53% 30.23 in 10.0 mi NNE 5.8 mph - N/A   Scattered Clouds
2:55 PM 46.9 °F - 30.4 °F 53% 30.22 in 10.0 mi NE 6.9 mph - N/A   Clear
3:15 PM 46.6 °F - 30.0 °F 53% 30.22 in 10.0 mi ENE 6.9 mph - N/A   Clear
3:35 PM 46.2 °F 45.0 °F 29.3 °F 52% 30.22 in 10.0 mi NNE 3.5 mph - N/A   Clear
3:55 PM 46.8 °F - 29.3 °F 51% 30.23 in 10.0 mi NNW 3.5 mph - N/A   Clear
4:15 PM 45.9 °F 43.6 °F 29.3 °F 52% 30.24 in 10.0 mi NNE 4.6 mph - N/A   Clear
4:35 PM 45.9 °F 44.6 °F 29.3 °F 52% 30.24 in 10.0 mi NNW 3.5 mph - N/A   Clear
4:55 PM 45.1 °F 42.8 °F 29.7 °F 55% 30.23 in 10.0 mi NE 4.6 mph - N/A   Clear
5:15 PM 44.8 °F 43.3 °F 30.0 °F 56% 30.23 in 10.0 mi NNE 3.5 mph - N/A   Clear
5:35 PM 44.6 °F 43.1 °F 30.0 °F 57% 30.24 in 10.0 mi North 3.5 mph - N/A   Clear
5:55 PM 44.2 °F 41.8 °F 29.5 °F 56% 30.24 in 10.0 mi NNE 4.6 mph - N/A   Clear
6:15 PM 43.9 °F 42.3 °F 29.3 °F 57% 30.26 in 10.0 mi NNE 3.5 mph - N/A   Clear
6:35 PM 43.7 °F 40.3 °F 29.3 °F 57% 30.26 in 10.0 mi NNE 5.8 mph - N/A   Clear
6:55 PM 43.2 °F 39.7 °F 29.5 °F 59% 30.25 in 10.0 mi NNE 5.8 mph - N/A   Clear
7:15 PM 42.8 °F 38.6 °F 29.1 °F 58% 30.25 in 10.0 mi NNE 6.9 mph - N/A   Clear
7:35 PM 42.6 °F 39.0 °F 28.4 °F 57% 30.25 in 10.0 mi NNE 5.8 mph - N/A   Clear
7:55 PM 42.4 °F 39.6 °F 28.8 °F 58% 30.27 in 10.0 mi NE 4.6 mph - N/A   Clear
8:15 PM 42.1 °F - 28.9 °F 60% 30.30 in 10.0 mi Calm Calm - N/A   Scattered Clouds
8:35 PM 41.9 °F - 28.6 °F 59% 30.31 in 10.0 mi Calm Calm - N/A   Mostly Cloudy
8:55 PM 42.1 °F - 29.3 °F 61% 30.34 in 10.0 mi Calm Calm - N/A   Overcast
9:15 PM 41.9 °F 40.0 °F 28.6 °F 59% 30.34 in 10.0 mi North 3.5 mph - N/A   Overcast
9:35 PM 41.7 °F 38.8 °F 28.4 °F 59% 30.32 in 10.0 mi NE 4.6 mph - N/A   Overcast
9:55 PM 41.4 °F 38.4 °F 28.4 °F 60% 30.31 in 10.0 mi NNE 4.6 mph - N/A   Overcast
10:15 PM 41.0 °F 38.0 °F 28.2 °F 60% 30.30 in 10.0 mi NNE 4.6 mph - N/A Rain Light Rain
10:35 PM 37.0 °F 34.5 °F 32.0 °F 82% 30.32 in 5.0 mi NE 3.5 mph - 0.01 in Rain Rain
10:55 PM 35.6 °F 32.8 °F 32.4 °F 88% 30.34 in 4.0 mi SE 3.5 mph - 0.03 in Rain Light Rain
11:15 PM 34.2 °F 31.2 °F 32.4 °F 93% 30.34 in 4.0 mi SE 3.5 mph - 0.02 in Snow Light Snow
11:35 PM 34.0 °F - 32.5 °F 94% 30.34 in 4.0 mi Calm Calm - 0.03 in Rain Light Rain
11:55 PM 33.8 °F 29.6 °F 32.9 °F 96% 30.28 in 2.5 mi NE 4.6 mph - 0.03 in   Light Drizzle